EN

Hourly Weather Nevirkiv

Today, 25 November, Wednesday

Time Temperature Precipitation Wind Pressure Humidity
00:00 +2°C° 0 mm 5 mps 748 mmHg 83%
01:00 +2°C° 0 mm 5 mps 749 mmHg 81%
02:00 +2°C° 0 mm 5 mps 748 mmHg 79%
03:00 +3°C° 0 mm 4 mps 748 mmHg 79%
04:00 +1°C° 0 mm 4 mps 748 mmHg 78%
05:00 +1°C° 0 mm 4 mps 748 mmHg 78%
06:00 +1°C° 0 mm 4 mps 748 mmHg 77%
07:00 +1°C° 0 mm 5 mps 748 mmHg 76%
08:00 +1°C° 0 mm 5 mps 748 mmHg 75%
09:00 +2°C° 0 mm 5 mps 748 mmHg 73%
10:00 +2°C° 0 mm 5 mps 748 mmHg 71%
11:00 +2°C° 0 mm 5 mps 748 mmHg 69%
12:00 +3°C° 0 mm 5 mps 748 mmHg 67%
13:00 +4°C° 0 mm 4 mps 748 mmHg 65%
14:00 +5°C° 0 mm 4 mps 748 mmHg 63%
15:00 +4°C° 0 mm 4 mps 748 mmHg 66%
16:00 +3°C° 0 mm 3 mps 748 mmHg 69%
17:00 +3°C° 0 mm 3 mps 748 mmHg 72%
18:00 +2°C° 0 mm 3 mps 748 mmHg 73%
19:00 +3°C° 0 mm 2 mps 748 mmHg 74%
20:00 +2°C° 0 mm 2 mps 749 mmHg 75%
21:00 +2°C° 0 mm 2 mps 749 mmHg 76%
22:00 +2°C° 0 mm 2 mps 748 mmHg 77%
23:00 +1°C° 0 mm 2 mps 748 mmHg 77%

Tomorrow, 26 November, Thursday

Time Temperature Precipitation Wind Pressure Humidity
00:00 +1°C° 0 mm 2 mps 748 mmHg 77%
01:00 +1°C° 0 mm 2 mps 749 mmHg 77%
02:00 +2°C° 0 mm 1 mps 749 mmHg 77%
03:00 -1°C° 0 mm 2 mps 748 mmHg 77%
04:00 -1°C° 0 mm 2 mps 748 mmHg 77%
05:00 -1°C° 0 mm 2 mps 748 mmHg 77%
06:00 -1°C° 0 mm 2 mps 748 mmHg 76%
07:00 -1°C° 0 mm 2 mps 748 mmHg 76%
08:00 -1°C° 0 mm 2 mps 748 mmHg 75%
09:00 +1°C° 0 mm 2 mps 748 mmHg 69%
10:00 +1°C° 0 mm 3 mps 748 mmHg 63%
11:00 +2°C° 0 mm 3 mps 747 mmHg 56%
12:00 +3°C° 0 mm 3 mps 747 mmHg 56%
13:00 +3°C° 0 mm 3 mps 747 mmHg 55%
14:00 +4°C° 0 mm 3 mps 747 mmHg 54%
15:00 +3°C° 0 mm 3 mps 747 mmHg 59%
16:00 +2°C° 0 mm 3 mps 746 mmHg 64%
17:00 0°C° 0 mm 3 mps 746 mmHg 69%
18:00 0°C° 0 mm 3 mps 746 mmHg 70%
19:00 0°C° 0 mm 3 mps 746 mmHg 72%
20:00 -1°C° 0 mm 3 mps 746 mmHg 73%
21:00 -1°C° 0 mm 3 mps 746 mmHg 75%
22:00 -1°C° 0 mm 3 mps 746 mmHg 76%
23:00 -1°C° 0 mm 3 mps 745 mmHg 77%

Day after tomorrow, 27 November, Friday

Time Temperature Precipitation Wind Pressure Humidity
00:00 -1°C° 0 mm 3 mps 745 mmHg 78%
01:00 -1°C° 0 mm 3 mps 745 mmHg 79%
02:00 -1°C° 0 mm 3 mps 745 mmHg 80%
03:00 -1°C° 0 mm 3 mps 745 mmHg 80%
04:00 -1°C° 0 mm 3 mps 745 mmHg 81%
05:00 -2°C° 0 mm 3 mps 745 mmHg 81%
06:00 -1°C° 0 mm 3 mps 745 mmHg 81%
07:00 -1°C° 0 mm 3 mps 745 mmHg 81%
08:00 -1°C° 0 mm 3 mps 745 mmHg 80%
09:00 -1°C° 0 mm 4 mps 745 mmHg 77%
10:00 0°C° 0 mm 4 mps 745 mmHg 75%
11:00 +1°C° 0 mm 4 mps 745 mmHg 72%
12:00 +1°C° 0 mm 4 mps 745 mmHg 73%
13:00 +1°C° 0 mm 4 mps 745 mmHg 75%
14:00 +1°C° 0 mm 4 mps 744 mmHg 76%
15:00 +1°C° 0 mm 4 mps 744 mmHg 80%
16:00 +1°C° 0 mm 4 mps 744 mmHg 83%
17:00 +1°C° 0 mm 4 mps 744 mmHg 86%
18:00 +1°C° 0 mm 4 mps 744 mmHg 88%
19:00 +1°C° 0 mm 4 mps 745 mmHg 90%
20:00 +1°C° 0 mm 4 mps 745 mmHg 92%
21:00 +1°C° 0 mm 4 mps 745 mmHg 92%
22:00 +1°C° 0 mm 4 mps 745 mmHg 92%
23:00 +1°C° 0 mm 4 mps 745 mmHg 93%

28 November, Saturday

Time Temperature Precipitation Wind Pressure Humidity
00:00 +1°C° 0 mm 4 mps 745 mmHg 93%
01:00 +1°C° 0 mm 4 mps 745 mmHg 93%
02:00 +2°C° 0 mm 3 mps 745 mmHg 94%
03:00 +1°C° 0 mm 3 mps 745 mmHg 93%
04:00 +1°C° 0 mm 3 mps 745 mmHg 92%
05:00 +1°C° 0 mm 3 mps 745 mmHg 92%
06:00 0°C° 0 mm 3 mps 745 mmHg 93%
07:00 +1°C° 0 mm 2 mps 745 mmHg 94%
08:00 -1°C° 0 mm 2 mps 745 mmHg 95%
09:00 +1°C° 0 mm 2 mps 745 mmHg 91%
10:00 +2°C° 0 mm 2 mps 746 mmHg 88%
11:00 +2°C° 0 mm 2 mps 746 mmHg 85%
12:00 +2°C° 0.2 mm 2 mps 746 mmHg 86%
13:00 +2°C° 0.2 mm 2 mps 746 mmHg 88%
14:00 +2°C° 0.2 mm 2 mps 746 mmHg 90%
15:00 +1°C° 0.2 mm 2 mps 746 mmHg 89%
16:00 0°C° 0.2 mm 3 mps 746 mmHg 89%
17:00 -1°C° 0.2 mm 3 mps 747 mmHg 89%
18:00 -1°C° 0.2 mm 3 mps 747 mmHg 88%
19:00 -2°C° 0.2 mm 4 mps 747 mmHg 87%
20:00 -2°C° 0.2 mm 4 mps 747 mmHg 86%
21:00 -2°C° 0 mm 3 mps 748 mmHg 87%
22:00 -2°C° 0 mm 3 mps 748 mmHg 87%
23:00 -3°C° 0 mm 2 mps 748 mmHg 88%

29 November, Sunday

Time Temperature Precipitation Wind Pressure Humidity
00:00 -3°C° 0 mm 2 mps 748 mmHg 89%
01:00 -3°C° 0 mm 2 mps 748 mmHg 90%
02:00 -3°C° 0 mm 2 mps 748 mmHg 92%
03:00 -3°C° 0 mm 2 mps 748 mmHg 92%
04:00 -3°C° 0 mm 2 mps 749 mmHg 93%
05:00 -3°C° 0 mm 2 mps 749 mmHg 94%
06:00 -3°C° 0 mm 2 mps 749 mmHg 93%
07:00 -3°C° 0 mm 2 mps 749 mmHg 92%
08:00 -4°C° 0 mm 2 mps 749 mmHg 92%
09:00 -3°C° 0 mm 2 mps 749 mmHg 87%
10:00 -2°C° 0 mm 3 mps 749 mmHg 82%
11:00 -1°C° 0 mm 3 mps 749 mmHg 77%
12:00 -1°C° 0 mm 3 mps 748 mmHg 77%
13:00 -1°C° 0 mm 4 mps 748 mmHg 76%
14:00 -1°C° 0 mm 4 mps 748 mmHg 76%
15:00 -1°C° 0.1 mm 4 mps 747 mmHg 82%
16:00 -2°C° 0.1 mm 4 mps 747 mmHg 87%
17:00 -2°C° 0.1 mm 5 mps 747 mmHg 93%
18:00 -2°C° 0.4 mm 5 mps 747 mmHg 93%
19:00 -2°C° 0.4 mm 5 mps 746 mmHg 94%
20:00 -4°C° 0.4 mm 6 mps 746 mmHg 95%
21:00 -4°C° 0.6 mm 6 mps 746 mmHg 95%
22:00 -3°C° 0.6 mm 6 mps 746 mmHg 96%
23:00 -3°C° 0.6 mm 6 mps 746 mmHg 96%

30 November, Monday

Time Temperature Precipitation Wind Pressure Humidity
00:00 -3°C° 0.5 mm 6 mps 745 mmHg 96%
01:00 -3°C° 0.5 mm 6 mps 745 mmHg 96%
02:00 -4°C° 0.5 mm 6 mps 745 mmHg 96%
03:00 -4°C° 0.7 mm 5 mps 745 mmHg 96%
04:00 -2°C° 0.7 mm 5 mps 745 mmHg 97%
05:00 -2°C° 0.7 mm 5 mps 745 mmHg 97%
06:00 -4°C° 0.5 mm 5 mps 745 mmHg 97%
07:00 -4°C° 0.5 mm 5 mps 746 mmHg 97%
08:00 -3°C° 0.5 mm 4 mps 746 mmHg 97%
09:00 -3°C° 0.1 mm 4 mps 746 mmHg 96%
10:00 -1°C° 0.1 mm 3 mps 747 mmHg 96%
11:00 -1°C° 0.1 mm 3 mps 747 mmHg 96%
12:00 -1°C° 0.1 mm 3 mps 747 mmHg 95%
13:00 -1°C° 0.1 mm 3 mps 748 mmHg 95%
14:00 -1°C° 0.1 mm 3 mps 748 mmHg 94%
15:00 -1°C° 0 mm 2 mps 748 mmHg 94%
16:00 -1°C° 0 mm 2 mps 748 mmHg 94%
17:00 -2°C° 0 mm 2 mps 749 mmHg 94%
18:00 -2°C° 0 mm 2 mps 749 mmHg 94%
19:00 -2°C° 0 mm 2 mps 749 mmHg 95%
20:00 -2°C° 0 mm 2 mps 750 mmHg 95%
21:00 -2°C° 0 mm 2 mps 750 mmHg 95%
22:00 -2°C° 0 mm 2 mps 750 mmHg 95%
23:00 -2°C° 0 mm 2 mps 750 mmHg 95%
Show more

We Need Your Consent

Meteoprog and our Service Providers may store and access personal data such as cookies, device identifiers or other similar technologies on your device and process such data to personalise content and ads, as well as provide social media features and to analyse the traffic.

  • Store and/or access information on your device

    Cookies, device identifiers or other information can be stored or accessed on your device for the purposes indicated above.

  • Personalised ads and content, ad and content measurement, audience insights, and products development

    Ads and content can be personalised based on a profile. More data can be added to better personalise ads and content. Ad and content performance can be measured. Insights about the audience who saw the ads and content can be derived. Such data can be used to develop or improve user’s experience, systems and software.

By clicking ‘I Agree’ you will allow the use of indicated cookies, device identifiers, web beacons or other similar technologies. Your settings can be changed in the browser on your device.

For certain purposes, legitimate interests may be relied on, rather than consent. You can read more about this in our Privacy and Cookie Policy.